Regional Weather Roundup
Issued by NWS Jackson, KY

Home | Current Version | Previous Version | Text Only | Print | Product List | Glossary Off
Versions: 1 2 3 4 5 6 7 8 9 10 11 12 13 14 15 16 17 18 19 20 21 22 23 24 25 26 27 28 29 30 31 32 33 34 35 36 37 38 39 40 41 42 43 44 45 46 47 48 49 50

000
ASUS43 KJKL 020005
RWRJKL

EAST KENTUCKY HOURLY WEATHER ROUNDUP
NATIONAL WEATHER SERVICE JACKSON KY
800 PM EDT FRI AUG 01 2014

NOTE: "FAIR" INDICATES FEW OR NO CLOUDS BELOW 12,000 FEET WITH
NO SIGNIFICANT WEATHER AND/OR OBSTRUCTIONS TO VISIBILITY.

* THESE REPORTS ARE NOT UNDER NWS QUALITY CONTROL AND MAY NOT
  REPORT WEATHER SUCH AS PRECIPITATION AND FOG.

KYZ079-080-083-085-087-088-110-112-115-119-120-020100
...EASTERN KENTUCKY...

CITY           SKY/WX    TMP DP  RH WIND       PRES   REMARKS
JACKSON        PTCLDY    75  62  64 CALM      30.07R
6HR MIN TEMP:  74; 6HR MAX TEMP:  84;

LONDON         LGT RAIN  76  65  68 N3        30.06R
6HR MIN TEMP:  76; 6HR MAX TEMP:  84; 6HR PCP: TRACE;

SOMERSET*      CLEAR     79  63  57 CALM      30.06R
MONTICELLO*    CLEAR     80  69  69 CALM      30.07R
6HR MIN TEMP:  80; 6HR MAX TEMP:  87;

MIDDLESBORO*   PTCLDY    76  67  74 CALM      30.06R
6HR MIN TEMP:  76; 6HR MAX TEMP:  85;

HARLAN APT*    MOCLDY    77  61  57 MISG      30.07S
BLACK MTN*       N/A    N/A N/A N/A NE1         N/A
PIKEVILLE APT* PTCLDY    75  63  64 S3        30.08R
BIG SANDY*     CLEAR     76  64  64 SE5       30.07R
6HR MIN TEMP:  76; 6HR MAX TEMP:  83;

MOREHEAD APT*    N/A     77  64  65 NE3       30.08R
$$

KYZ035-036-041-042-044-050-067-078-099-020100
...CENTRAL KENTUCKY...

CITY           SKY/WX    TMP DP  RH WIND       PRES   REMARKS
MT STERLING*   PTCLDY    79  63  57 CALM      30.07R
FLEMING/MASON* CLEAR     78  62  56 E6        30.07S
DANVILLE*      PTCLDY    77  61  57 CALM      30.07R
RICHMOND*      PTCLDY    79  61  53 CALM      30.05R
LEXINGTON      PTCLDY    80  60  50 NE7       30.06R
6HR MIN TEMP:  80; 6HR MAX TEMP:  86;

FRANKFORT      CLEAR     82  57  42 N5        30.04S
6HR MIN TEMP:  81; 6HR MAX TEMP:  86;

$$

KYZ091>093-OHZ055-061-077-WVZ005-015-034-035-042-020100
...SOUTHERN OHIO/WEST VIRGINIA...

CITY           SKY/WX    TMP DP  RH WIND       PRES   REMARKS
COVINGTON      PTCLDY    79  58  48 E3        30.06R
COLUMBUS       PTCLDY    81  62  52 NE5       30.06R
DAYTON         MOCLDY    78  62  57 N3        30.08S
WILMINGTON     MOCLDY    77  63  61 E3        30.07R
HUNTINGTON     MOCLDY    75  66  73 N5        30.05S
CHARLESTON     PTCLDY    75  66  73 E5        30.07S
PINEVILLE*     CLEAR     73  64  73 MISG      30.17S
BECKLEY        CLEAR     68  56  65 SE7       30.17R
BLUEFIELD      CLOUDY    65  55  70 VRB5      30.19S
$$

VAZ002-007-008-TNZ017-027-036-066-071-020100
...SOUTHWEST VIRGINIA/EAST TENNESSEE...

CITY           SKY/WX    TMP DP  RH WIND       PRES   REMARKS
WISE*          PTCLDY    72  57  60 CALM      30.16R
JONESVILLE*    CLEAR     75  64  69 CALM      30.10R
ABINGDON*      CLEAR     71  59  66 SE6       30.13R
BRISTOL        PTCLDY    75  58  55 E6        30.10R
KNOXVILLE      MOCLDY    80  65  59 NE3       30.03R
OAK RIDGE      PTCLDY    81  65  58 CALM      30.05R
CROSSVILLE     CLOUDY    74  65  73 CALM      30.10R
NASHVILLE      MOCLDY    83  62  49 SE5       30.03R
$$

...KEY TO REMARKS...
VSB - VISIBILITY IN MILES
WCI - WIND CHILL INDEX
HX  - HEAT INDEX

$$


USA.gov is the U.S. government's official web portal to all federal, state and local government web resources and services.